Flag for Argentina Weather past 2 weeks in Buenos Aires, Argentina

Now
61 °F

Sunny.


Feels Like: 61 °F
Forecast: 58 / 67 °F
Wind: 7 mph from East

Location: Buenos Aires Airport

Current Time: Sep 30, 2014 at 6:57:37 AM

Latest Report: Sep 30, 2014 at 6:00 AM


Visibility: 10 mi

Pressure: 29.98 "Hg

Humidity: 72%

Dew point: 52 °F

Location of Buenos AiresLocation

Historic Weather in Buenos Aires — Graph

°F

Buenos Aires temperature yesterday

Maximum temperature yesterday: 64 °F (at 9:00 AM)
Minimum temperature yesterday: 55 °F (at 5:00 AM)
Average temperature yesterday: 61 °F

Past Weeks' High & Low Weather Summary

 TemperatureHumidityPressure
High73 °F (Sep 19, 6:00 PM)100% (Sep 29, 3:00 AM)30.21 "Hg (Sep 29, 3:00 AM)
Low50 °F (Sep 16, 4:00 AM)22% (Sep 26, 6:00 PM)29.65 "Hg (Sep 25, 4:00 PM)
Average62 °F67%30.00 "Hg
* Reported Sep 15 5:00 AM — Sep 30 5:00 AM, Buenos Aires, Weather by CustomWeather, © 2014

Note: Actual official high and low records may vary slightly from our data, if they occured in-between our weather recording intervals... More about our weather records

Advertising

Buenos Aires weather history for previous 24 hours

 ConditionsComfort  
Time TempWeatherWind HumidityBarometerVisibility
5:00 AM
Sep 30
61 °FClear.9 mph77%29.98 "Hg10 mi
4:00 AM63 °FClear.12 mph73%29.98 "Hg10 mi
3:00 AM63 °FClear.10 mph73%30.01 "Hg10 mi
2:00 AM63 °FClear.12 mph68%29.98 "Hg10 mi
1:00 AM63 °FClear.12 mph73%30.01 "Hg10 mi
12:00 AM63 °FClear.14 mph73%30.01 "Hg10 mi
11:00 PM
Sep 29
63 °FClear.13 mph73%30.01 "Hg10 mi
10:00 PM63 °FClear.14 mph73%30.01 "Hg10 mi
9:00 PM63 °FClear.13 mph73%29.98 "Hg10 mi
8:00 PM63 °FClear.12 mph73%29.98 "Hg10 mi
7:00 PM63 °FClear.12 mph73%29.95 "Hg10 mi
6:00 PM64 °FClear.9 mph68%29.95 "Hg10 mi
5:00 PM64 °FSunny.9 mph68%29.92 "Hg10 mi
4:00 PM64 °FSunny.8 mph73%29.92 "Hg10 mi
3:00 PM64 °FSunny.8 mph78%29.95 "Hg10 mi
2:00 PM63 °FPartly sunny.9 mph83%29.95 "HgN/A
1:00 PM63 °FScattered clouds.12 mph83%29.98 "HgN/A
12:00 PM63 °FPartly sunny.8 mph88%29.98 "HgN/A
11:00 AM63 °FPassing clouds.8 mph88%29.98 "HgN/A
10:00 AM63 °FClear.9 mph83%29.98 "Hg5 mi
9:00 AM64 °FSunny.9 mph73%29.98 "Hg10 mi
8:00 AM61 °FSunny.6 mph77%29.98 "Hg10 mi
7:00 AM57 °FClear.6 mph88%29.95 "Hg5 mi
6:00 AM55 °FScattered clouds.3 mph100%29.95 "Hg4 mi
Weather by CustomWeather, © 2014

See weather overviewHow to use our weather pages